Fredonyer Smt Atmospheric Data: 07/12/2019 Summary  Detailed Graphs  Station List

  Temperature     Wind Precipitation Visibility
Timestamp Air Wet
Bulb
Dew-
point
24-hr
Max
24-hr
Min
Relative
Humidity
Atmospheric
Pressure
Avg
Speed
Avg
Dir
Spot
Speed
Spot
Dir
Max
Speed
Max
Dir
  Rate Situation Start End 1 hr 3 hr 6 hr 12 hr 24 hr   Situation
Date Time °F °F °F °F °F % in Hg mph ° mph ° mph ° Y/N in/hr text Date Time Date Time in in in in in mi text
07/12/2019 12:02 AM 59.54 52.16 46.04 80.60 53.06 60.0 Not Reported 2.68 SW 1.79 W 3.36 SW No 0.000 No Precipitation 06/25/2019 12:34 PM 06/25/2019 12:42 PM 0.000 0.000 0.000 0.000 0.000 Not Reported Not Reported
07/12/2019 12:07 AM 59.54 52.16 46.04 80.60 53.06 60.0 Not Reported 1.79 W 2.46 SW 3.36 SW No 0.000 No Precipitation 06/25/2019 12:34 PM 06/25/2019 12:42 PM 0.000 0.000 0.000 0.000 0.000 Not Reported Not Reported
07/12/2019 12:12 AM 59.00 51.98 45.86 80.60 53.06 61.0 Not Reported 0.45 W 0.45 W 2.91 SW No 0.000 No Precipitation 06/25/2019 12:34 PM 06/25/2019 12:42 PM 0.000 0.000 0.000 0.000 0.000 Not Reported Not Reported
07/12/2019 12:17 AM 59.00 51.80 45.68 80.60 53.06 61.0 Not Reported 0.22 W 0.89 NW 2.91 SW No 0.000 No Precipitation 06/25/2019 12:34 PM 06/25/2019 12:42 PM 0.000 0.000 0.000 0.000 0.000 Not Reported Not Reported
07/12/2019 12:22 AM 59.18 51.80 45.32 80.60 53.06 60.0 Not Reported 0.45 NW 0.22 NW 1.12 NW No 0.000 No Precipitation 06/25/2019 12:34 PM 06/25/2019 12:42 PM 0.000 0.000 0.000 0.000 0.000 Not Reported Not Reported
07/12/2019 12:27 AM 59.00 51.80 45.68 80.60 53.06 60.0 Not Reported 0.22 NW 0.00 W 1.12 NW No 0.000 No Precipitation 06/25/2019 12:34 PM 06/25/2019 12:42 PM 0.000 0.000 0.000 0.000 0.000 Not Reported Not Reported
07/12/2019 12:32 AM 59.18 51.98 45.68 80.60 53.06 60.0 Not Reported 0.67 W 0.89 W 0.89 W No 0.000 No Precipitation 06/25/2019 12:34 PM 06/25/2019 12:42 PM 0.000 0.000 0.000 0.000 0.000 Not Reported Not Reported
07/12/2019 12:37 AM 59.18 52.16 46.22 80.60 53.06 61.0 Not Reported 1.12 W 0.67 W 0.89 W No 0.000 No Precipitation 06/25/2019 12:34 PM 06/25/2019 12:42 PM 0.000 0.000 0.000 0.000 0.000 Not Reported Not Reported
07/12/2019 12:42 AM 59.00 51.98 46.22 80.60 53.06 62.0 Not Reported 1.57 W 1.79 W 2.01 W No 0.000 No Precipitation 06/25/2019 12:34 PM 06/25/2019 12:42 PM 0.000 0.000 0.000 0.000 0.000 Not Reported Not Reported
07/12/2019 12:47 AM 58.64 51.80 46.22 80.60 53.06 63.0 Not Reported 2.24 W 1.12 SW 2.01 W No 0.000 No Precipitation 06/25/2019 12:34 PM 06/25/2019 12:42 PM 0.000 0.000 0.000 0.000 0.000 Not Reported Not Reported
07/12/2019 12:52 AM 58.28 51.62 46.22 80.60 53.06 64.0 Not Reported 2.24 SW 2.01 SW 2.68 SW No 0.000 No Precipitation 06/25/2019 12:34 PM 06/25/2019 12:42 PM 0.000 0.000 0.000 0.000 0.000 Not Reported Not Reported
07/12/2019 12:57 AM 57.74 51.44 46.04 80.60 53.06 65.0 Not Reported 2.68 SW 2.68 SW 2.68 SW No 0.000 No Precipitation 06/25/2019 12:34 PM 06/25/2019 12:42 PM 0.000 0.000 0.000 0.000 0.000 Not Reported Not Reported
07/12/2019 01:02 AM 57.38 51.44 46.22 80.60 53.06 66.0 Not Reported 2.91 SW 3.13 W 3.13 SW No 0.000 No Precipitation 06/25/2019 12:34 PM 06/25/2019 12:42 PM 0.000 0.000 0.000 0.000 0.000 Not Reported Not Reported
07/12/2019 01:07 AM 57.38 51.26 46.04 80.60 53.06 65.0 Not Reported 2.68 W 2.68 W 3.13 SW No 0.000 No Precipitation 06/25/2019 12:34 PM 06/25/2019 12:42 PM 0.000 0.000 0.000 0.000 0.000 Not Reported Not Reported
07/12/2019 01:12 AM 57.20 51.08 46.04 80.60 53.06 66.0 Not Reported 2.24 SW 2.01 SW 3.13 W No 0.000 No Precipitation 06/25/2019 12:34 PM 06/25/2019 12:42 PM 0.000 0.000 0.000 0.000 0.000 Not Reported Not Reported
07/12/2019 01:17 AM 57.20 51.26 46.22 80.60 53.06 66.0 Not Reported 2.01 SW 2.01 SW 3.13 W No 0.000 No Precipitation 06/25/2019 12:34 PM 06/25/2019 12:42 PM 0.000 0.000 0.000 0.000 0.000 Not Reported Not Reported
07/12/2019 01:22 AM 57.02 51.08 46.04 80.60 53.06 66.0 Not Reported 2.01 SW 2.24 SW 2.68 SW No 0.000 No Precipitation 06/25/2019 12:34 PM 06/25/2019 12:42 PM 0.000 0.000 0.000 0.000 0.000 Not Reported Not Reported
07/12/2019 01:27 AM 57.02 51.08 46.04 80.60 53.06 66.0 Not Reported 2.24 SW 1.34 SW 2.68 SW No 0.000 No Precipitation 06/25/2019 12:34 PM 06/25/2019 12:42 PM 0.000 0.000 0.000 0.000 0.000 Not Reported Not Reported
07/12/2019 01:32 AM 57.02 51.26 46.22 80.60 53.06 67.0 Not Reported 1.34 SW 1.34 SW 2.24 SW No 0.000 No Precipitation 06/25/2019 12:34 PM 06/25/2019 12:42 PM 0.000 0.000 0.000 0.000 0.000 Not Reported Not Reported
07/12/2019 01:37 AM 57.02 51.08 46.22 80.60 53.06 67.0 Not Reported 1.12 SW 1.34 SW 2.24 SW No 0.000 No Precipitation 06/25/2019 12:34 PM 06/25/2019 12:42 PM 0.000 0.000 0.000 0.000 0.000 Not Reported Not Reported
07/12/2019 01:42 AM 57.02 51.26 46.40 80.60 53.06 67.0 Not Reported 0.89 SW 0.89 W 1.57 SW No 0.000 No Precipitation 06/25/2019 12:34 PM 06/25/2019 12:42 PM 0.000 0.000 0.000 0.000 0.000 Not Reported Not Reported
07/12/2019 01:47 AM 56.84 51.08 46.22 80.60 53.06 67.0 Not Reported 0.00 N 0.00 SW 1.57 SW No 0.000 No Precipitation 06/25/2019 12:34 PM 06/25/2019 12:42 PM 0.000 0.000 0.000 0.000 0.000 Not Reported Not Reported
07/12/2019 01:52 AM 57.02 51.26 46.58 80.60 53.06 68.0 Not Reported 0.00 SW 0.00 SW 1.12 SW No 0.000 No Precipitation 06/25/2019 12:34 PM 06/25/2019 12:42 PM 0.000 0.000 0.000 0.000 0.000 Not Reported Not Reported
07/12/2019 01:57 AM 56.84 51.26 46.40 80.60 53.06 67.0 Not Reported 0.45 SW 0.00 SW 1.12 SW No 0.000 No Precipitation 06/25/2019 12:34 PM 06/25/2019 12:42 PM 0.000 0.000 0.000 0.000 0.000 Not Reported Not Reported
07/12/2019 02:02 AM 57.02 51.44 46.58 80.60 53.06 68.0 Not Reported 0.00 SW 0.00 SW 0.67 SW No 0.000 No Precipitation 06/25/2019 12:34 PM 06/25/2019 12:42 PM 0.000 0.000 0.000 0.000 0.000 Not Reported Not Reported
07/12/2019 02:07 AM 57.20 51.44 46.58 80.60 53.06 67.0 Not Reported 0.00 N 0.00 SW 0.67 SW No 0.000 No Precipitation 06/25/2019 12:34 PM 06/25/2019 12:42 PM 0.000 0.000 0.000 0.000 0.000 Not Reported Not Reported
07/12/2019 02:12 AM 57.20 51.44 46.58 80.60 53.06 67.0 Not Reported 0.00 N 0.00 SW 0.00 SW No 0.000 No Precipitation 06/25/2019 12:34 PM 06/25/2019 12:42 PM 0.000 0.000 0.000 0.000 0.000 Not Reported Not Reported
07/12/2019 02:17 AM 57.38 51.62 46.76 80.60 53.06 67.0 Not Reported 0.00 N 0.00 SW 0.00 SW No 0.000 No Precipitation 06/25/2019 12:34 PM 06/25/2019 12:42 PM 0.000 0.000 0.000 0.000 0.000 Not Reported Not Reported
07/12/2019 02:22 AM 57.38 51.62 46.76 80.60 53.06 67.0 Not Reported 0.00 N 0.00 W 0.00 SW No 0.000 No Precipitation 06/25/2019 12:34 PM 06/25/2019 12:42 PM 0.000 0.000 0.000 0.000 0.000 Not Reported Not Reported
07/12/2019 02:27 AM 57.56 51.80 46.76 80.60 53.06 66.0 Not Reported 0.00 N 0.00 NW 0.00 SW No 0.000 No Precipitation 06/25/2019 12:34 PM 06/25/2019 12:42 PM 0.000 0.000 0.000 0.000 0.000 Not Reported Not Reported
07/12/2019 02:32 AM 57.56 51.62 46.58 80.60 53.06 66.0 Not Reported 0.00 N 0.00 NW 0.00 SW No 0.000 No Precipitation 06/25/2019 12:34 PM 06/25/2019 12:42 PM 0.000 0.000 0.000 0.000 0.000 Not Reported Not Reported
07/12/2019 02:37 AM 57.38 51.62 46.58 80.60 53.06 67.0 Not Reported 0.00 N 0.00 NW 0.00 SW No 0.000 No Precipitation 06/25/2019 12:34 PM 06/25/2019 12:42 PM 0.000 0.000 0.000 0.000 0.000 Not Reported Not Reported
07/12/2019 02:42 AM 57.38 51.62 46.76 80.60 53.06 67.0 Not Reported 0.00 N 0.00 NW 0.00 NW No 0.000 No Precipitation 06/25/2019 12:34 PM 06/25/2019 12:42 PM 0.000 0.000 0.000 0.000 0.000 Not Reported Not Reported
07/12/2019 02:47 AM 57.20 51.62 46.76 80.60 53.06 67.0 Not Reported 0.00 N 0.00 N 0.00 NW No 0.000 No Precipitation 06/25/2019 12:34 PM 06/25/2019 12:42 PM 0.000 0.000 0.000 0.000 0.000 Not Reported Not Reported
07/12/2019 02:52 AM 57.38 51.62 46.76 80.60 53.06 67.0 Not Reported 0.67 N 0.67 N 0.89 N No 0.000 No Precipitation 06/25/2019 12:34 PM 06/25/2019 12:42 PM 0.000 0.000 0.000 0.000 0.000 Not Reported Not Reported
07/12/2019 02:57 AM 57.92 51.80 46.76 80.60 53.06 66.0 Not Reported 0.45 N 0.45 N 0.89 N No 0.000 No Precipitation 06/25/2019 12:34 PM 06/25/2019 12:42 PM 0.000 0.000 0.000 0.000 0.000 Not Reported Not Reported
07/12/2019 03:02 AM 57.56 51.62 46.58 80.60 53.06 66.0 Not Reported 0.00 NE 0.22 NE 0.67 N No 0.000 No Precipitation 06/25/2019 12:34 PM 06/25/2019 12:42 PM 0.000 0.000 0.000 0.000 0.000 Not Reported Not Reported
07/12/2019 03:07 AM 57.02 51.44 46.76 80.60 53.06 68.0 Not Reported 0.45 NE 0.45 NE 0.67 N No 0.000 No Precipitation 06/25/2019 12:34 PM 06/25/2019 12:42 PM 0.000 0.000 0.000 0.000 0.000 Not Reported Not Reported
07/12/2019 03:12 AM 57.38 51.44 46.40 80.60 53.06 66.0 Not Reported 0.45 N 0.45 N 0.67 NE No 0.000 No Precipitation 06/25/2019 12:34 PM 06/25/2019 12:42 PM 0.000 0.000 0.000 0.000 0.000 Not Reported Not Reported
07/12/2019 03:17 AM 57.56 51.44 46.04 80.60 53.06 65.0 Not Reported 0.22 N 0.45 N 0.67 NE No 0.000 No Precipitation 06/25/2019 12:34 PM 06/25/2019 12:42 PM 0.000 0.000 0.000 0.000 0.000 Not Reported Not Reported
07/12/2019 03:22 AM 57.74 51.44 46.22 80.60 53.06 65.0 Not Reported 0.00 N 0.00 N 0.67 N No 0.000 No Precipitation 06/25/2019 12:34 PM 06/25/2019 12:42 PM 0.000 0.000 0.000 0.000 0.000 Not Reported Not Reported
07/12/2019 03:27 AM 58.10 51.62 46.04 80.60 53.06 64.0 Not Reported 0.00 N 0.00 N 0.67 N No 0.000 No Precipitation 06/25/2019 12:34 PM 06/25/2019 12:42 PM 0.000 0.000 0.000 0.000 0.000 Not Reported Not Reported
07/12/2019 03:32 AM 58.64 51.80 45.86 80.60 53.06 62.0 Not Reported 0.00 N 0.00 N 0.22 N No 0.000 No Precipitation 06/25/2019 12:34 PM 06/25/2019 12:42 PM 0.000 0.000 0.000 0.000 0.000 Not Reported Not Reported
07/12/2019 03:37 AM 58.46 51.62 45.68 80.60 53.06 62.0 Not Reported 0.45 NW 0.45 NW 0.22 N No 0.000 No Precipitation 06/25/2019 12:34 PM 06/25/2019 12:42 PM 0.000 0.000 0.000 0.000 0.000 Not Reported Not Reported
07/12/2019 03:42 AM 58.46 51.80 46.04 80.60 53.06 63.0 Not Reported 0.00 N 0.00 NW 0.89 NW No 0.000 No Precipitation 06/25/2019 12:34 PM 06/25/2019 12:42 PM 0.000 0.000 0.000 0.000 0.000 Not Reported Not Reported
07/12/2019 03:47 AM 58.28 51.62 45.86 80.60 53.06 63.0 Not Reported 0.00 N 0.00 W 0.89 NW No 0.000 No Precipitation 06/25/2019 12:34 PM 06/25/2019 12:42 PM 0.000 0.000 0.000 0.000 0.000 Not Reported Not Reported
07/12/2019 03:52 AM 58.10 51.44 46.04 80.60 53.06 64.0 Not Reported 0.00 W 0.22 W 0.22 W No 0.000 No Precipitation 06/25/2019 12:34 PM 06/25/2019 12:42 PM 0.000 0.000 0.000 0.000 0.000 Not Reported Not Reported
07/12/2019 03:57 AM 57.92 51.44 46.04 80.60 53.06 64.0 Not Reported 0.45 W 0.00 W 0.22 W No 0.000 No Precipitation 06/25/2019 12:34 PM 06/25/2019 12:42 PM 0.000 0.000 0.000 0.000 0.000 Not Reported Not Reported
07/12/2019 04:02 AM 57.74 51.26 45.86 80.60 53.06 64.0 Not Reported 0.89 W 1.12 W 0.89 W No 0.000 No Precipitation 06/25/2019 12:34 PM 06/25/2019 12:42 PM 0.000 0.000 0.000 0.000 0.000 Not Reported Not Reported
07/12/2019 04:07 AM 57.92 51.44 46.04 80.60 53.06 64.0 Not Reported 0.89 W 1.34 W 0.89 W No 0.000 No Precipitation 06/25/2019 12:34 PM 06/25/2019 12:42 PM 0.000 0.000 0.000 0.000 0.000 Not Reported Not Reported
07/12/2019 04:12 AM 57.56 51.26 45.86 80.60 53.06 64.0 Not Reported 0.89 W 0.89 W 1.34 W No 0.000 No Precipitation 06/25/2019 12:34 PM 06/25/2019 12:42 PM 0.000 0.000 0.000 0.000 0.000 Not Reported Not Reported
07/12/2019 04:17 AM 57.38 51.08 45.50 80.60 53.06 64.0 Not Reported 0.00 W 0.00 W 1.34 W No 0.000 No Precipitation 06/25/2019 12:34 PM 06/25/2019 12:42 PM 0.000 0.000 0.000 0.000 0.000 Not Reported Not Reported
07/12/2019 04:22 AM 57.20 50.90 45.50 80.60 53.06 64.0 Not Reported 0.00 W 0.00 W 1.12 W No 0.000 No Precipitation 06/25/2019 12:34 PM 06/25/2019 12:42 PM 0.000 0.000 0.000 0.000 0.000 Not Reported Not Reported
07/12/2019 04:27 AM 56.66 50.54 45.32 80.60 53.06 65.0 Not Reported 0.22 W 0.22 W 1.12 W No 0.000 No Precipitation 06/25/2019 12:34 PM 06/25/2019 12:42 PM 0.000 0.000 0.000 0.000 0.000 Not Reported Not Reported
07/12/2019 04:32 AM 56.48 50.36 45.14 80.60 53.06 65.0 Not Reported 0.22 W 0.22 W 0.67 W No 0.000 No Precipitation 06/25/2019 12:34 PM 06/25/2019 12:42 PM 0.000 0.000 0.000 0.000 0.000 Not Reported Not Reported
07/12/2019 04:37 AM 56.12 50.18 44.96 80.60 53.06 66.0 Not Reported 0.67 W 0.22 W 0.67 W No 0.000 No Precipitation 06/25/2019 12:34 PM 06/25/2019 12:42 PM 0.000 0.000 0.000 0.000 0.000 Not Reported Not Reported
07/12/2019 04:42 AM 55.94 50.36 45.32 80.60 53.06 67.0 Not Reported 0.67 W 0.67 W 0.89 W No 0.000 No Precipitation 06/25/2019 12:34 PM 06/25/2019 12:42 PM 0.000 0.000 0.000 0.000 0.000 Not Reported Not Reported
07/12/2019 04:47 AM 55.94 50.18 44.96 80.60 53.06 66.0 Not Reported 0.67 W 0.22 W 0.89 W No 0.000 No Precipitation 06/25/2019 12:34 PM 06/25/2019 12:42 PM 0.000 0.000 0.000 0.000 0.000 Not Reported Not Reported
07/12/2019 04:52 AM 55.76 50.00 44.78 80.60 53.06 66.0 Not Reported 0.45 W 0.45 W 0.89 W No 0.000 No Precipitation 06/25/2019 12:34 PM 06/25/2019 12:42 PM 0.000 0.000 0.000 0.000 0.000 Not Reported Not Reported
07/12/2019 04:57 AM 55.40 49.64 44.60 80.60 53.06 67.0 Not Reported 0.45 W 0.45 W 0.89 W No 0.000 No Precipitation 06/25/2019 12:34 PM 06/25/2019 12:42 PM 0.000 0.000 0.000 0.000 0.000 Not Reported Not Reported
07/12/2019 05:02 AM 55.22 49.82 44.96 80.60 53.06 68.0 Not Reported 0.67 W 0.89 W 0.67 W No 0.000 No Precipitation 06/25/2019 12:34 PM 06/25/2019 12:42 PM 0.000 0.000 0.000 0.000 0.000 Not Reported Not Reported
07/12/2019 05:07 AM 55.04 49.64 44.60 80.60 53.06 67.0 Not Reported 0.00 W 0.00 W 0.67 W No 0.000 No Precipitation 06/25/2019 12:34 PM 06/25/2019 12:42 PM 0.000 0.000 0.000 0.000 0.000 Not Reported Not Reported
07/12/2019 05:12 AM 55.04 49.64 44.78 80.60 53.06 68.0 Not Reported 0.45 W 0.45 W 0.89 W No 0.000 No Precipitation 06/25/2019 12:34 PM 06/25/2019 12:42 PM 0.000 0.000 0.000 0.000 0.000 Not Reported Not Reported
07/12/2019 05:17 AM 55.40 49.82 44.96 80.60 53.06 67.0 Not Reported 0.45 W 0.00 W 0.89 W No 0.000 No Precipitation 06/25/2019 12:34 PM 06/25/2019 12:42 PM 0.000 0.000 0.000 0.000 0.000 Not Reported Not Reported
07/12/2019 05:22 AM 55.76 50.36 45.50 80.60 53.06 68.0 Not Reported 0.89 W 0.45 W 0.67 W No 0.000 No Precipitation 06/25/2019 12:34 PM 06/25/2019 12:42 PM 0.000 0.000 0.000 0.000 0.000 Not Reported Not Reported
07/12/2019 05:27 AM 56.30 50.54 45.68 80.60 53.06 67.0 Not Reported 0.22 NW 0.00 NW 0.67 W No 0.000 No Precipitation 06/25/2019 12:34 PM 06/25/2019 12:42 PM 0.000 0.000 0.000 0.000 0.000 Not Reported Not Reported
07/12/2019 05:32 AM 56.66 50.90 46.04 80.60 53.06 67.0 Not Reported 0.67 NW 0.67 NW 1.12 W No 0.000 No Precipitation 06/25/2019 12:34 PM 06/25/2019 12:42 PM 0.000 0.000 0.000 0.000 0.000 Not Reported Not Reported
07/12/2019 05:37 AM 57.02 51.26 46.40 80.60 53.06 67.0 Not Reported 0.22 W 0.22 W 1.12 W No 0.000 No Precipitation 06/25/2019 12:34 PM 06/25/2019 12:42 PM 0.000 0.000 0.000 0.000 0.000 Not Reported Not Reported
07/12/2019 05:42 AM 57.92 51.62 46.40 80.60 53.06 65.0 Not Reported 0.45 NW 0.89 NW 0.89 NW No 0.000 No Precipitation 06/25/2019 12:34 PM 06/25/2019 12:42 PM 0.000 0.000 0.000 0.000 0.000 Not Reported Not Reported
07/12/2019 05:47 AM 57.92 51.08 45.32 80.60 53.06 62.0 Not Reported 1.34 NW 1.12 NW 0.89 NW No 0.000 No Precipitation 06/25/2019 12:34 PM 06/25/2019 12:42 PM 0.000 0.000 0.000 0.000 0.000 Not Reported Not Reported
07/12/2019 05:52 AM 57.20 51.08 45.68 80.60 53.24 65.0 Not Reported 0.22 NW 0.22 NW 1.34 NW No 0.000 No Precipitation 06/25/2019 12:34 PM 06/25/2019 12:42 PM 0.000 0.000 0.000 0.000 0.000 Not Reported Not Reported
07/12/2019 05:57 AM 57.02 51.08 46.04 80.60 53.60 66.0 Not Reported 0.22 W 0.89 W 1.34 NW No 0.000 No Precipitation 06/25/2019 12:34 PM 06/25/2019 12:42 PM 0.000 0.000 0.000 0.000 0.000 Not Reported Not Reported
07/12/2019 06:02 AM 57.02 51.26 46.22 80.60 53.78 67.0 Not Reported 1.79 W 2.01 W 1.79 W No 0.000 No Precipitation 06/25/2019 12:34 PM 06/25/2019 12:42 PM 0.000 0.000 0.000 0.000 0.000 Not Reported Not Reported
07/12/2019 06:07 AM 57.02 51.26 46.40 80.60 53.78 67.0 Not Reported 2.01 W 1.57 W 1.79 W No 0.000 No Precipitation 06/25/2019 12:34 PM 06/25/2019 12:42 PM 0.000 0.000 0.000 0.000 0.000 Not Reported Not Reported
07/12/2019 06:12 AM 56.66 51.08 46.40 80.60 53.78 68.0 Not Reported 2.01 W 2.24 W 2.24 W No 0.000 No Precipitation 06/25/2019 12:34 PM 06/25/2019 12:42 PM 0.000 0.000 0.000 0.000 0.000 Not Reported Not Reported
07/12/2019 06:17 AM 56.12 50.72 46.22 80.60 53.78 69.0 Not Reported 2.24 SW 1.79 W 2.24 W No 0.000 No Precipitation 06/25/2019 12:34 PM 06/25/2019 12:42 PM 0.000 0.000 0.000 0.000 0.000 Not Reported Not Reported
07/12/2019 06:22 AM 55.76 50.54 46.22 80.60 53.78 70.0 Not Reported 0.00 W 0.00 W 2.46 SW No 0.000 No Precipitation 06/25/2019 12:34 PM 06/25/2019 12:42 PM 0.000 0.000 0.000 0.000 0.000 Not Reported Not Reported
07/12/2019 06:27 AM 55.58 50.36 45.86 80.60 53.78 69.0 Not Reported 0.67 W 1.34 W 2.46 SW No 0.000 No Precipitation 06/25/2019 12:34 PM 06/25/2019 12:42 PM 0.000 0.000 0.000 0.000 0.000 Not Reported Not Reported
07/12/2019 06:32 AM 55.76 50.36 45.86 80.60 54.14 69.0 Not Reported 1.34 W 1.34 W 1.34 W No 0.000 No Precipitation 06/25/2019 12:34 PM 06/25/2019 12:42 PM 0.000 0.000 0.000 0.000 0.000 Not Reported Not Reported
07/12/2019 06:37 AM 55.22 50.18 45.86 80.60 54.14 70.0 Not Reported 0.00 W 0.45 W 1.34 W No 0.000 No Precipitation 06/25/2019 12:34 PM 06/25/2019 12:42 PM 0.000 0.000 0.000 0.000 0.000 Not Reported Not Reported
07/12/2019 06:42 AM 55.22 50.36 46.04 80.60 54.14 70.0 Not Reported 0.67 W 0.67 W 1.79 W No 0.000 No Precipitation 06/25/2019 12:34 PM 06/25/2019 12:42 PM 0.000 0.000 0.000 0.000 0.000 Not Reported Not Reported
07/12/2019 06:47 AM 55.22 50.18 45.68 80.60 54.32 70.0 Not Reported 0.67 W 1.12 W 1.79 W No 0.000 No Precipitation 06/25/2019 12:34 PM 06/25/2019 12:42 PM 0.000 0.000 0.000 0.000 0.000 Not Reported Not Reported
07/12/2019 06:52 AM 55.40 50.36 46.04 80.60 54.50 70.0 Not Reported 0.00 W 0.22 W 1.12 W No 0.000 No Precipitation 06/25/2019 12:34 PM 06/25/2019 12:42 PM 0.000 0.000 0.000 0.000 0.000 Not Reported Not Reported
07/12/2019 06:57 AM 55.58 50.54 46.04 80.60 54.50 70.0 Not Reported 1.12 W 1.79 W 1.12 W No 0.000 No Precipitation 06/25/2019 12:34 PM 06/25/2019 12:42 PM 0.000 0.000 0.000 0.000 0.000 Not Reported Not Reported
07/12/2019 07:02 AM 55.58 50.36 45.86 80.60 54.68 69.0 Not Reported 0.22 W 0.45 W 1.79 W No 0.000 No Precipitation 06/25/2019 12:34 PM 06/25/2019 12:42 PM 0.000 0.000 0.000 0.000 0.000 Not Reported Not Reported
07/12/2019 07:07 AM 55.22 50.18 45.86 80.60 54.86 70.0 Not Reported 0.89 W 0.45 W 1.79 W No 0.000 No Precipitation 06/25/2019 12:34 PM 06/25/2019 12:42 PM 0.000 0.000 0.000 0.000 0.000 Not Reported Not Reported
07/12/2019 07:12 AM 55.40 50.54 46.40 80.60 54.86 71.0 Not Reported 0.45 W 0.45 W 1.12 W No 0.000 No Precipitation 06/25/2019 12:34 PM 06/25/2019 12:42 PM 0.000 0.000 0.000 0.000 0.000 Not Reported Not Reported
07/12/2019 07:17 AM 55.40 50.72 46.58 80.60 54.86 71.0 Not Reported 0.67 W 0.67 W 1.12 W No 0.000 No Precipitation 06/25/2019 12:34 PM 06/25/2019 12:42 PM 0.000 0.000 0.000 0.000 0.000 Not Reported Not Reported
07/12/2019 07:22 AM 55.58 50.72 46.58 80.60 54.86 71.0 Not Reported 0.67 W 0.89 W 0.67 W No 0.000 No Precipitation 06/25/2019 12:34 PM 06/25/2019 12:42 PM 0.000 0.000 0.000 0.000 0.000 Not Reported Not Reported
07/12/2019 07:27 AM 55.58 50.72 46.76 80.60 54.86 72.0 Not Reported 0.67 W 0.89 W 0.67 W No 0.000 No Precipitation 06/25/2019 12:34 PM 06/25/2019 12:42 PM 0.000 0.000 0.000 0.000 0.000 Not Reported Not Reported
07/12/2019 07:32 AM 55.58 50.54 46.22 80.60 54.86 70.0 Not Reported 0.45 W 0.67 W 1.12 SW No 0.000 No Precipitation 06/25/2019 12:34 PM 06/25/2019 12:42 PM 0.000 0.000 0.000 0.000 0.000 Not Reported Not Reported
07/12/2019 07:37 AM 55.58 50.18 45.68 80.60 54.86 69.0 Not Reported 0.22 W 0.45 W 1.12 SW No 0.000 No Precipitation 06/25/2019 12:34 PM 06/25/2019 12:42 PM 0.000 0.000 0.000 0.000 0.000 Not Reported Not Reported
07/12/2019 07:42 AM 55.58 50.18 45.32 80.60 54.86 68.0 Not Reported 0.22 W 0.22 W 0.67 W No 0.000 No Precipitation 06/25/2019 12:34 PM 06/25/2019 12:42 PM 0.000 0.000 0.000 0.000 0.000 Not Reported Not Reported
07/12/2019 07:47 AM 55.58 50.36 45.68 80.60 54.86 69.0 Not Reported 0.00 W 0.67 W 0.67 W No 0.000 No Precipitation 06/25/2019 12:34 PM 06/25/2019 12:42 PM 0.000 0.000 0.000 0.000 0.000 Not Reported Not Reported
07/12/2019 07:52 AM 55.58 50.54 46.22 80.60 54.86 70.0 Not Reported 0.45 W 0.45 W 1.12 SW No 0.000 No Precipitation 06/25/2019 12:34 PM 06/25/2019 12:42 PM 0.000 0.000 0.000 0.000 0.000 Not Reported Not Reported
07/12/2019 07:57 AM 55.94 50.90 46.58 80.60 54.86 70.0 Not Reported 0.00 W 0.89 W 1.12 SW No 0.000 No Precipitation 06/25/2019 12:34 PM 06/25/2019 12:42 PM 0.000 0.000 0.000 0.000 0.000 Not Reported Not Reported
07/12/2019 08:02 AM 56.12 50.90 46.58 80.60 55.04 70.0 Not Reported 1.12 W 1.57 W 0.89 W No 0.000 No Precipitation 06/25/2019 12:34 PM 06/25/2019 12:42 PM 0.000 0.000 0.000 0.000 0.000 Not Reported Not Reported
07/12/2019 08:07 AM 55.94 50.90 46.40 80.60 55.04 70.0 Not Reported 2.24 W 2.24 SW 0.89 W No 0.000 No Precipitation 06/25/2019 12:34 PM 06/25/2019 12:42 PM 0.000 0.000 0.000 0.000 0.000 Not Reported Not Reported
07/12/2019 08:12 AM 55.94 50.72 46.22 80.60 55.04 69.0 Not Reported 1.79 SW 1.79 W 2.68 W No 0.000 No Precipitation 06/25/2019 12:34 PM 06/25/2019 12:42 PM 0.000 0.000 0.000 0.000 0.000 Not Reported Not Reported
07/12/2019 08:17 AM 56.30 51.08 46.40 80.60 55.04 69.0 Not Reported 1.57 SW 1.12 W 2.68 W No 0.000 No Precipitation 06/25/2019 12:34 PM 06/25/2019 12:42 PM 0.000 0.000 0.000 0.000 0.000 Not Reported Not Reported
07/12/2019 08:22 AM 56.66 51.44 46.94 80.60 55.04 69.0 Not Reported 1.57 W 1.79 W 2.01 W No 0.000 No Precipitation 06/25/2019 12:34 PM 06/25/2019 12:42 PM 0.000 0.000 0.000 0.000 0.000 Not Reported Not Reported
07/12/2019 08:27 AM 57.20 51.62 46.94 80.60 55.04 68.0 Not Reported 0.89 W 1.12 W 2.01 W No 0.000 No Precipitation 06/25/2019 12:34 PM 06/25/2019 12:42 PM 0.000 0.000 0.000 0.000 0.000 Not Reported Not Reported
07/12/2019 08:32 AM 57.20 51.44 46.76 80.60 55.04 67.0 Not Reported 2.01 SW 2.01 SW 2.01 W No 0.000 No Precipitation 06/25/2019 12:34 PM 06/25/2019 12:42 PM 0.000 0.000 0.000 0.000 0.000 Not Reported Not Reported
07/12/2019 08:37 AM 57.56 51.44 46.40 80.60 55.04 66.0 Not Reported 2.24 SW 2.24 W 2.01 W No 0.000 No Precipitation 06/25/2019 12:34 PM 06/25/2019 12:42 PM 0.000 0.000 0.000 0.000 0.000 Not Reported Not Reported
07/12/2019 08:42 AM 58.46 51.98 46.40 80.60 55.04 64.0 Not Reported 2.01 SW 2.01 SW 2.68 SW No 0.000 No Precipitation 06/25/2019 12:34 PM 06/25/2019 12:42 PM 0.000 0.000 0.000 0.000 0.000 Not Reported Not Reported
07/12/2019 08:47 AM 58.28 52.16 46.94 80.60 55.04 65.0 Not Reported 1.57 SW 1.57 W 2.68 SW No 0.000 No Precipitation 06/25/2019 12:34 PM 06/25/2019 12:42 PM 0.000 0.000 0.000 0.000 0.000 Not Reported Not Reported
07/12/2019 08:52 AM 58.82 52.34 47.12 80.60 55.04 64.0 Not Reported 1.79 SW 1.79 SW 2.24 W No 0.000 No Precipitation 06/25/2019 12:34 PM 06/25/2019 12:42 PM 0.000 0.000 0.000 0.000 0.000 Not Reported Not Reported
07/12/2019 08:57 AM 59.90 52.70 46.58 80.60 55.04 61.0 Not Reported 0.89 W 0.89 SW 2.24 W No 0.000 No Precipitation 06/25/2019 12:34 PM 06/25/2019 12:42 PM 0.000 0.000 0.000 0.000 0.000 Not Reported Not Reported
07/12/2019 09:02 AM 60.62 52.88 46.58 80.60 55.04 59.0 Not Reported 0.45 W 0.22 W 1.79 SW No 0.000 No Precipitation 06/25/2019 12:34 PM 06/25/2019 12:42 PM 0.000 0.000 0.000 0.000 0.000 Not Reported Not Reported
07/12/2019 09:07 AM 60.98 53.24 46.94 80.60 55.04 59.0 Not Reported 1.12 SW 1.34 SW 1.79 SW No 0.000 No Precipitation 06/25/2019 12:34 PM 06/25/2019 12:42 PM 0.000 0.000 0.000 0.000 0.000 Not Reported Not Reported
07/12/2019 09:12 AM 61.70 53.42 46.76 80.60 55.04 57.0 Not Reported 1.57 SW 1.57 SW 1.79 SW No 0.000 No Precipitation 06/25/2019 12:34 PM 06/25/2019 12:42 PM 0.000 0.000 0.000 0.000 0.000 Not Reported Not Reported
07/12/2019 09:17 AM 62.24 53.78 47.12 80.60 55.04 57.0 Not Reported 1.12 SW 1.12 W 1.79 SW No 0.000 No Precipitation 06/25/2019 12:34 PM 06/25/2019 12:42 PM 0.000 0.000 0.000 0.000 0.000 Not Reported Not Reported
07/12/2019 09:22 AM 62.42 54.14 47.66 80.60 55.04 58.0 Not Reported 1.34 SW 1.79 W 1.79 SW No 0.000 No Precipitation 06/25/2019 12:34 PM 06/25/2019 12:42 PM 0.000 0.000 0.000 0.000 0.000 Not Reported Not Reported
07/12/2019 09:27 AM 62.78 54.14 47.12 80.60 55.04 56.0 Not Reported 1.34 SW 2.24 SW 1.79 SW No 0.000 No Precipitation 06/25/2019 12:34 PM 06/25/2019 12:42 PM 0.000 0.000 0.000 0.000 0.000 Not Reported Not Reported
07/12/2019 09:32 AM 63.14 54.50 47.84 80.60 55.04 57.0 Not Reported 1.34 SW 1.34 W 2.24 SW No 0.000 No Precipitation 06/25/2019 12:34 PM 06/25/2019 12:42 PM 0.000 0.000 0.000 0.000 0.000 Not Reported Not Reported
07/12/2019 09:37 AM 63.14 54.50 47.48 80.60 55.04 56.0 Not Reported 1.12 SW 0.89 W 2.24 SW No 0.000 No Precipitation 06/25/2019 12:34 PM 06/25/2019 12:42 PM 0.000 0.000 0.000 0.000 0.000 Not Reported Not Reported
07/12/2019 09:42 AM 64.04 54.68 47.30 80.60 55.04 54.0 Not Reported 1.57 SW 1.57 SW 2.01 W No 0.000 No Precipitation 06/25/2019 12:34 PM 06/25/2019 12:42 PM 0.000 0.000 0.000 0.000 0.000 Not Reported Not Reported
07/12/2019 09:47 AM 64.04 54.50 46.76 80.60 55.04 53.0 Not Reported 0.89 SW 1.57 W 2.01 W No 0.000 No Precipitation 06/25/2019 12:34 PM 06/25/2019 12:42 PM 0.000 0.000 0.000 0.000 0.000 Not Reported Not Reported
07/12/2019 09:52 AM 64.58 54.86 47.30 80.60 55.04 52.0 Not Reported 0.89 W 1.79 SW 2.01 W No 0.000 No Precipitation 06/25/2019 12:34 PM 06/25/2019 12:42 PM 0.000 0.000 0.000 0.000 0.000 Not Reported Not Reported
07/12/2019 09:57 AM 65.30 55.04 46.76 80.60 55.04 51.0 Not Reported 0.45 NW 1.34 SW 2.01 W No 0.000 No Precipitation 06/25/2019 12:34 PM 06/25/2019 12:42 PM 0.000 0.000 0.000 0.000 0.000 Not Reported Not Reported
07/12/2019 10:02 AM 65.48 55.22 47.12 80.60 55.04 51.0 Not Reported 0.89 SW 1.57 W 2.46 NW No 0.000 No Precipitation 06/25/2019 12:34 PM 06/25/2019 12:42 PM 0.000 0.000 0.000 0.000 0.000 Not Reported Not Reported
07/12/2019 10:07 AM 66.38 56.12 48.20 80.60 55.04 51.0 Not Reported 1.57 SW 2.01 W 2.46 NW No 0.000 No Precipitation 06/25/2019 12:34 PM 06/25/2019 12:42 PM 0.000 0.000 0.000 0.000 0.000 Not Reported Not Reported
07/12/2019 10:12 AM 66.74 56.30 48.38 80.60 55.04 51.0 Not Reported 1.57 SW 1.79 SW 2.46 SW No 0.000 No Precipitation 06/25/2019 12:34 PM 06/25/2019 12:42 PM 0.000 0.000 0.000 0.000 0.000 Not Reported Not Reported
07/12/2019 10:17 AM 67.82 57.20 49.46 80.60 55.04 51.0 Not Reported 1.34 SW 0.89 NW 2.46 SW No 0.000 No Precipitation 06/25/2019 12:34 PM 06/25/2019 12:42 PM 0.000 0.000 0.000 0.000 0.000 Not Reported Not Reported
07/12/2019 10:22 AM 67.64 57.20 49.46 80.60 55.04 51.0 Not Reported 0.89 SW 0.89 SW 2.01 SW No 0.000 No Precipitation 06/25/2019 12:34 PM 06/25/2019 12:42 PM 0.000 0.000 0.000 0.000 0.000 Not Reported Not Reported
07/12/2019 10:27 AM 69.26 57.38 48.56 80.60 55.04 47.0 Not Reported 1.79 SW 2.01 SW 2.01 SW No 0.000 No Precipitation 06/25/2019 12:34 PM 06/25/2019 12:42 PM 0.000 0.000 0.000 0.000 0.000 Not Reported Not Reported
07/12/2019 10:32 AM 69.44 57.74 48.92 80.60 55.04 48.0 Not Reported 1.34 W 1.57 W 2.01 SW No 0.000 No Precipitation 06/25/2019 12:34 PM 06/25/2019 12:42 PM 0.000 0.000 0.000 0.000 0.000 Not Reported Not Reported
07/12/2019 10:37 AM 69.62 58.10 49.64 80.60 55.04 48.0 Not Reported 1.34 SW 1.57 SW 2.01 SW No 0.000 No Precipitation 06/25/2019 12:34 PM 06/25/2019 12:42 PM 0.000 0.000 0.000 0.000 0.000 Not Reported Not Reported
07/12/2019 10:42 AM 71.06 58.28 48.92 80.60 55.04 45.0 Not Reported 2.46 SW 2.46 SW 2.01 SW No 0.000 No Precipitation 06/25/2019 12:34 PM 06/25/2019 12:42 PM 0.000 0.000 0.000 0.000 0.000 Not Reported Not Reported
07/12/2019 10:47 AM 71.24 58.46 49.28 80.60 55.04 45.0 Not Reported 1.12 S 2.01 SW 2.01 SW No 0.000 No Precipitation 06/25/2019 12:34 PM 06/25/2019 12:42 PM 0.000 0.000 0.000 0.000 0.000 Not Reported Not Reported
07/12/2019 10:52 AM 71.42 58.46 48.56 80.60 55.04 44.0 Not Reported 1.34 SW 0.89 SW 3.13 SW No 0.000 No Precipitation 06/25/2019 12:34 PM 06/25/2019 12:42 PM 0.000 0.000 0.000 0.000 0.000 Not Reported Not Reported
07/12/2019 10:57 AM 72.14 57.02 45.14 80.60 55.04 37.0 Not Reported 2.01 E 0.00 SW 3.13 SW No 0.000 No Precipitation 06/25/2019 12:34 PM 06/25/2019 12:42 PM 0.000 0.000 0.000 0.000 0.000 Not Reported Not Reported
07/12/2019 11:02 AM 74.12 58.82 47.48 80.60 55.04 38.0 Not Reported 0.67 S 0.00 S 2.91 SE No 0.000 No Precipitation 06/25/2019 12:34 PM 06/25/2019 12:42 PM 0.000 0.000 0.000 0.000 0.000 Not Reported Not Reported
07/12/2019 11:07 AM 73.22 58.10 46.40 80.60 55.04 38.0 Not Reported 0.45 SW 1.34 SW 2.91 SE No 0.000 No Precipitation 06/25/2019 12:34 PM 06/25/2019 12:42 PM 0.000 0.000 0.000 0.000 0.000 Not Reported Not Reported
07/12/2019 11:12 AM 73.40 58.10 46.58 80.60 55.04 38.0 Not Reported 1.12 W 1.12 W 1.79 NW No 0.000 No Precipitation 06/25/2019 12:34 PM 06/25/2019 12:42 PM 0.000 0.000 0.000 0.000 0.000 Not Reported Not Reported
07/12/2019 11:17 AM 73.04 57.92 46.40 80.60 55.04 38.0 Not Reported 1.79 SW 2.68 SW 1.79 NW No 0.000 No Precipitation 06/25/2019 12:34 PM 06/25/2019 12:42 PM 0.000 0.000 0.000 0.000 0.000 Not Reported Not Reported
07/12/2019 11:22 AM 73.94 58.28 46.22 80.60 55.04 37.0 Not Reported 0.89 SW 1.34 SW 2.91 W No 0.000 No Precipitation 06/25/2019 12:34 PM 06/25/2019 12:42 PM 0.000 0.000 0.000 0.000 0.000 Not Reported Not Reported
07/12/2019 11:27 AM 73.58 57.92 45.86 80.60 55.04 37.0 Not Reported 1.79 W 0.45 SW 2.91 W No 0.000 No Precipitation 06/25/2019 12:34 PM 06/25/2019 12:42 PM 0.000 0.000 0.000 0.000 0.000 Not Reported Not Reported
07/12/2019 11:32 AM 74.66 58.64 46.58 80.60 55.04 36.0 Not Reported 1.57 NW 0.89 SW 2.01 NW No 0.000 No Precipitation 06/25/2019 12:34 PM 06/25/2019 12:42 PM 0.000 0.000 0.000 0.000 0.000 Not Reported Not Reported
07/12/2019 11:37 AM 73.94 57.56 44.42 80.60 55.04 34.0 Not Reported 3.58 SW 5.14 SW 2.01 NW No 0.000 No Precipitation 06/25/2019 12:34 PM 06/25/2019 12:42 PM 0.000 0.000 0.000 0.000 0.000 Not Reported Not Reported
07/12/2019 11:42 AM 74.30 57.02 42.26 80.60 55.04 33.0 Not Reported 1.34 W 0.22 SW 5.14 SW No 0.000 No Precipitation 06/25/2019 12:34 PM 06/25/2019 12:42 PM 0.000 0.000 0.000 0.000 0.000 Not Reported Not Reported
07/12/2019 11:47 AM 75.02 57.56 43.34 80.60 55.04 32.0 Not Reported 4.92 SW 3.36 W 5.14 SW No 0.000 No Precipitation 06/25/2019 12:34 PM 06/25/2019 12:42 PM 0.000 0.000 0.000 0.000 0.000 Not Reported Not Reported
07/12/2019 11:52 AM 74.48 57.56 43.88 80.60 55.04 33.0 Not Reported 2.91 SW 3.13 SW 5.59 SW No 0.000 No Precipitation 06/25/2019 12:34 PM 06/25/2019 12:42 PM 0.000 0.000 0.000 0.000 0.000 Not Reported Not Reported
07/12/2019 11:57 AM 74.30 57.02 42.80 80.60 55.04 32.0 Not Reported 4.92 SW 1.79 W 5.59 SW No 0.000 No Precipitation 06/25/2019 12:34 PM 06/25/2019 12:42 PM 0.000 0.000 0.000 0.000 0.000 Not Reported Not Reported
07/12/2019 12:02 PM 75.02 57.02 42.08 80.60 55.04 30.0 Not Reported 1.12 W 1.12 S 5.59 SW No 0.000 No Precipitation 06/25/2019 12:34 PM 06/25/2019 12:42 PM 0.000 0.000 0.000 0.000 0.000 Not Reported Not Reported
07/12/2019 12:07 PM 76.28 57.92 43.16 80.60 55.04 30.0 Not Reported 1.12 W 0.67 W 5.59 SW No 0.000 No Precipitation 06/25/2019 12:34 PM 06/25/2019 12:42 PM 0.000 0.000 0.000 0.000 0.000 Not Reported Not Reported
07/12/2019 12:12 PM 75.74 57.02 41.18 80.60 55.04 28.0 Not Reported 1.34 W 1.12 SW 3.36 W No 0.000 No Precipitation 06/25/2019 12:34 PM 06/25/2019 12:42 PM 0.000 0.000 0.000 0.000 0.000 Not Reported Not Reported
07/12/2019 12:17 PM 75.74 57.20 41.72 80.60 55.04 29.0 Not Reported 2.01 SW 3.36 W 3.36 W No 0.000 No Precipitation 06/25/2019 12:34 PM 06/25/2019 12:42 PM 0.000 0.000 0.000 0.000 0.000 Not Reported Not Reported
07/12/2019 12:22 PM 76.46 57.56 41.90 80.60 55.04 28.0 Not Reported 3.13 SW 3.36 SW 4.03 W No 0.000 No Precipitation 06/25/2019 12:34 PM 06/25/2019 12:42 PM 0.000 0.000 0.000 0.000 0.000 Not Reported Not Reported
07/12/2019 12:27 PM 75.74 56.84 41.00 80.60 55.04 28.0 Not Reported 4.03 SW 3.58 SW 4.03 W No 0.000 No Precipitation 06/25/2019 12:34 PM 06/25/2019 12:42 PM 0.000 0.000 0.000 0.000 0.000 Not Reported Not Reported
07/12/2019 12:32 PM 76.82 57.74 42.44 80.60 55.04 28.0 Not Reported 1.57 NW 2.91 W 5.82 SW No 0.000 No Precipitation 06/25/2019 12:34 PM 06/25/2019 12:42 PM 0.000 0.000 0.000 0.000 0.000 Not Reported Not Reported
07/12/2019 12:37 PM 77.72 58.10 42.26 80.60 55.04 28.0 Not Reported 2.68 SW 3.80 W 5.82 SW No 0.000 No Precipitation 06/25/2019 12:34 PM 06/25/2019 12:42 PM 0.000 0.000 0.000 0.000 0.000 Not Reported Not Reported
07/12/2019 12:42 PM 77.36 57.92 41.90 80.60 55.04 28.0 Not Reported 2.91 W 1.79 NW 4.47 SW No 0.000 No Precipitation 06/25/2019 12:34 PM 06/25/2019 12:42 PM 0.000 0.000 0.000 0.000 0.000 Not Reported Not Reported
07/12/2019 12:47 PM 76.82 57.56 41.90 80.60 55.04 28.0 Not Reported 4.03 SW 2.01 SW 4.47 SW No 0.000 No Precipitation 06/25/2019 12:34 PM 06/25/2019 12:42 PM 0.000 0.000 0.000 0.000 0.000 Not Reported Not Reported
07/12/2019 12:52 PM 76.46 56.66 39.20 80.60 55.04 26.0 Not Reported 4.92 SW 4.47 W 6.26 W No 0.000 No Precipitation 06/25/2019 12:34 PM 06/25/2019 12:42 PM 0.000 0.000 0.000 0.000 0.000 Not Reported Not Reported
07/12/2019 12:57 PM 77.36 57.20 40.28 80.60 55.04 26.0 Not Reported 2.46 SW 1.34 W 6.26 W No 0.000 No Precipitation 06/25/2019 12:34 PM 06/25/2019 12:42 PM 0.000 0.000 0.000 0.000 0.000 Not Reported Not Reported
07/12/2019 01:02 PM 78.08 57.92 41.36 80.60 55.04 26.0 Not Reported 2.68 W 3.13 W 6.04 SW No 0.000 No Precipitation 06/25/2019 12:34 PM 06/25/2019 12:42 PM 0.000 0.000 0.000 0.000 0.000 Not Reported Not Reported
07/12/2019 01:07 PM 77.36 57.38 40.82 80.60 55.04 27.0 Not Reported 4.70 W 2.46 W 6.04 SW No 0.000 No Precipitation 06/25/2019 12:34 PM 06/25/2019 12:42 PM 0.000 0.000 0.000 0.000 0.000 Not Reported Not Reported
07/12/2019 01:12 PM 77.00 56.84 39.74 80.60 55.04 26.0 Not Reported 3.58 W 1.12 N 7.16 SW No 0.000 No Precipitation 06/25/2019 12:34 PM 06/25/2019 12:42 PM 0.000 0.000 0.000 0.000 0.000 Not Reported Not Reported
07/12/2019 01:17 PM 77.72 57.56 40.82 80.60 55.04 26.0 Not Reported 3.58 SW 3.36 SW 7.16 SW No 0.000 No Precipitation 06/25/2019 12:34 PM 06/25/2019 12:42 PM 0.000 0.000 0.000 0.000 0.000 Not Reported Not Reported
07/12/2019 01:22 PM 77.36 56.66 38.48 80.60 55.04 24.0 Not Reported 4.92 W 4.47 SW 6.04 SW No 0.000 No Precipitation 06/25/2019 12:34 PM 06/25/2019 12:42 PM 0.000 0.000 0.000 0.000 0.000 Not Reported Not Reported
07/12/2019 01:27 PM 78.62 57.38 39.02 80.60 55.04 24.0 Not Reported 3.13 W 4.47 W 6.04 SW No 0.000 No Precipitation 06/25/2019 12:34 PM 06/25/2019 12:42 PM 0.000 0.000 0.000 0.000 0.000 Not Reported Not Reported
07/12/2019 01:32 PM 78.26 57.20 38.66 80.60 55.04 24.0 Not Reported 8.05 SW 8.05 SW 5.59 W No 0.000 No Precipitation 06/25/2019 12:34 PM 06/25/2019 12:42 PM 0.000 0.000 0.000 0.000 0.000 Not Reported Not Reported
07/12/2019 01:37 PM 78.80 57.38 38.84 80.60 55.04 23.0 Not Reported 4.25 SW 5.14 SW 5.59 W No 0.000 No Precipitation 06/25/2019 12:34 PM 06/25/2019 12:42 PM 0.000 0.000 0.000 0.000 0.000 Not Reported Not Reported
07/12/2019 01:42 PM 80.24 58.28 39.92 80.60 55.04 23.0 Not Reported 1.79 NW 2.24 NW 9.40 SW No 0.000 No Precipitation 06/25/2019 12:34 PM 06/25/2019 12:42 PM 0.000 0.000 0.000 0.000 0.000 Not Reported Not Reported
07/12/2019 01:47 PM 78.98 57.20 38.12 80.60 55.04 23.0 Not Reported 5.37 SW 4.92 W 9.40 SW No 0.000 No Precipitation 06/25/2019 12:34 PM 06/25/2019 12:42 PM 0.000 0.000 0.000 0.000 0.000 Not Reported Not Reported
07/12/2019 01:52 PM 78.80 57.74 39.92 80.60 55.04 24.0 Not Reported 4.70 SW 3.58 SW 6.26 SW No 0.000 No Precipitation 06/25/2019 12:34 PM 06/25/2019 12:42 PM 0.000 0.000 0.000 0.000 0.000 Not Reported Not Reported
07/12/2019 01:57 PM 79.70 57.56 38.12 80.60 55.04 22.0 Not Reported 4.25 SW 2.46 SW 6.26 SW No 0.000 No Precipitation 06/25/2019 12:34 PM 06/25/2019 12:42 PM 0.000 0.000 0.000 0.000 0.000 Not Reported Not Reported
07/12/2019 02:02 PM 80.24 56.84 37.04 80.60 55.04 21.0 Not Reported 5.14 SW 4.70 W 6.26 W No 0.000 No Precipitation 06/25/2019 12:34 PM 06/25/2019 12:42 PM 0.000 0.000 0.000 0.000 0.000 Not Reported Not Reported
07/12/2019 02:07 PM 79.34 57.38 38.12 80.60 55.04 22.0 Not Reported 2.46 W 5.59 W 6.26 W No 0.000 No Precipitation 06/25/2019 12:34 PM 06/25/2019 12:42 PM 0.000 0.000 0.000 0.000 0.000 Not Reported Not Reported
07/12/2019 02:12 PM 79.16 57.38 38.30 80.60 55.04 23.0 Not Reported 4.92 W 6.26 SW 7.38 SW No 0.000 No Precipitation 06/25/2019 12:34 PM 06/25/2019 12:42 PM 0.000 0.000 0.000 0.000 0.000 Not Reported Not Reported
07/12/2019 02:17 PM 78.98 57.02 37.58 80.60 55.04 22.0 Not Reported 5.14 SW 4.25 SW 7.38 SW No 0.000 No Precipitation 06/25/2019 12:34 PM 06/25/2019 12:42 PM 0.000 0.000 0.000 0.000 0.000 Not Reported Not Reported
07/12/2019 02:22 PM 80.24 57.38 37.04 80.60 55.04 21.0 Not Reported 2.68 SW 3.36 S 8.50 SW No 0.000 No Precipitation 06/25/2019 12:34 PM 06/25/2019 12:42 PM 0.000 0.000 0.000 0.000 0.000 Not Reported Not Reported
07/12/2019 02:27 PM 79.88 57.02 36.14 80.60 55.04 20.0 Not Reported 4.03 W 5.37 W 8.50 SW No 0.000 No Precipitation 06/25/2019 12:34 PM 06/25/2019 12:42 PM 0.000 0.000 0.000 0.000 0.000 Not Reported Not Reported
07/12/2019 02:32 PM 80.60 57.56 36.86 80.78 55.04 20.0 Not Reported 4.03 W 2.91 W 7.38 NW No 0.000 No Precipitation 06/25/2019 12:34 PM 06/25/2019 12:42 PM 0.000 0.000 0.000 0.000 0.000 Not Reported Not Reported
07/12/2019 02:37 PM 79.70 57.74 38.66 80.78 55.04 23.0 Not Reported 5.37 SW 4.03 SW 7.38 NW No 0.000 No Precipitation 06/25/2019 12:34 PM 06/25/2019 12:42 PM 0.000 0.000 0.000 0.000 0.000 Not Reported Not Reported
07/12/2019 02:42 PM 79.88 56.84 35.60 80.78 55.04 20.0 Not Reported 6.71 SW 6.49 SW 7.83 SW No 0.000 No Precipitation 06/25/2019 12:34 PM 06/25/2019 12:42 PM 0.000 0.000 0.000 0.000 0.000 Not Reported Not Reported
07/12/2019 02:47 PM 79.70 56.48 34.70 80.78 55.04 19.0 Not Reported 5.37 W 4.03 S 7.83 SW No 0.000 No Precipitation 06/25/2019 12:34 PM 06/25/2019 12:42 PM 0.000 0.000 0.000 0.000 0.000 Not Reported Not Reported
07/12/2019 02:52 PM 80.60 57.38 36.68 80.78 55.04 20.0 Not Reported 4.25 SW 4.92 SW 7.61 NW No 0.000 No Precipitation 06/25/2019 12:34 PM 06/25/2019 12:42 PM 0.000 0.000 0.000 0.000 0.000 Not Reported Not Reported
07/12/2019 02:57 PM 80.06 57.20 36.50 81.32 55.04 20.0 Not Reported 5.14 SW 4.92 SW 7.61 NW No 0.000 No Precipitation 06/25/2019 12:34 PM 06/25/2019 12:42 PM 0.000 0.000 0.000 0.000 0.000 Not Reported Not Reported
07/12/2019 03:02 PM 80.06 57.38 37.58 81.32 55.04 21.0 Not Reported 4.92 W 4.47 W 6.04 SW No 0.000 No Precipitation 06/25/2019 12:34 PM 06/25/2019 12:42 PM 0.000 0.000 0.000 0.000 0.000 Not Reported Not Reported
07/12/2019 03:07 PM 79.88 57.92 39.02 81.32 55.04 23.0 Not Reported 2.91 W 5.82 SW 6.04 SW No 0.000 No Precipitation 06/25/2019 12:34 PM 06/25/2019 12:42 PM 0.000 0.000 0.000 0.000 0.000 Not Reported Not Reported
07/12/2019 03:12 PM 79.34 57.02 36.86 81.32 55.04 21.0 Not Reported 4.25 SW 5.59 SW 6.93 W No 0.000 No Precipitation 06/25/2019 12:34 PM 06/25/2019 12:42 PM 0.000 0.000 0.000 0.000 0.000 Not Reported Not Reported
07/12/2019 03:17 PM 79.52 57.74 39.20 81.32 55.04 23.0 Not Reported 4.70 W 2.01 NW 6.93 W No 0.000 No Precipitation 06/25/2019 12:34 PM 06/25/2019 12:42 PM 0.000 0.000 0.000 0.000 0.000 Not Reported Not Reported
07/12/2019 03:22 PM 79.52 58.10 40.28 81.32 55.04 24.0 Not Reported 3.13 W 8.05 W 8.50 SW No 0.000 No Precipitation 06/25/2019 12:34 PM 06/25/2019 12:42 PM 0.000 0.000 0.000 0.000 0.000 Not Reported Not Reported
07/12/2019 03:27 PM 80.24 58.28 39.74 81.32 55.04 23.0 Not Reported 4.03 W 5.14 SW 8.50 SW No 0.000 No Precipitation 06/25/2019 12:34 PM 06/25/2019 12:42 PM 0.000 0.000 0.000 0.000 0.000 Not Reported Not Reported
07/12/2019 03:32 PM 78.26 57.02 38.30 81.32 55.04 23.0 Not Reported 5.82 SW 6.71 S 8.50 NE No 0.000 No Precipitation 06/25/2019 12:34 PM 06/25/2019 12:42 PM 0.000 0.000 0.000 0.000 0.000 Not Reported Not Reported
07/12/2019 03:37 PM 80.60 58.64 40.46 81.32 55.04 23.0 Not Reported 2.91 W 3.13 SW 8.50 NE No 0.000 No Precipitation 06/25/2019 12:34 PM 06/25/2019 12:42 PM 0.000 0.000 0.000 0.000 0.000 Not Reported Not Reported
07/12/2019 03:42 PM 79.34 57.56 38.84 81.32 55.04 23.0 Not Reported 3.58 SW 1.79 SW 6.93 SW No 0.000 No Precipitation 06/25/2019 12:34 PM 06/25/2019 12:42 PM 0.000 0.000 0.000 0.000 0.000 Not Reported Not Reported
07/12/2019 03:47 PM 82.04 58.28 37.76 82.04 55.04 20.0 Not Reported 4.03 SW 5.59 SW 6.93 SW No 0.000 No Precipitation 06/25/2019 12:34 PM 06/25/2019 12:42 PM 0.000 0.000 0.000 0.000 0.000 Not Reported Not Reported
07/12/2019 03:52 PM 80.78 57.92 38.30 82.04 55.04 21.0 Not Reported 2.68 W 2.68 W 5.82 W No 0.000 No Precipitation 06/25/2019 12:34 PM 06/25/2019 12:42 PM 0.000 0.000 0.000 0.000 0.000 Not Reported Not Reported
07/12/2019 03:57 PM 80.60 57.56 37.04 82.04 55.04 21.0 Not Reported 5.37 SW 2.46 SW 5.82 W No 0.000 No Precipitation 06/25/2019 12:34 PM 06/25/2019 12:42 PM 0.000 0.000 0.000 0.000 0.000 Not Reported Not Reported
07/12/2019 04:02 PM 81.32 57.02 34.52 82.04 55.04 18.0 Not Reported 4.92 W 5.37 W 7.83 SW No 0.000 No Precipitation 06/25/2019 12:34 PM 06/25/2019 12:42 PM 0.000 0.000 0.000 0.000 0.000 Not Reported Not Reported
07/12/2019 04:07 PM 81.50 57.20 34.52 82.04 55.04 18.0 Not Reported 4.92 SW 3.13 SW 7.83 SW No 0.000 No Precipitation 06/25/2019 12:34 PM 06/25/2019 12:42 PM 0.000 0.000 0.000 0.000 0.000 Not Reported Not Reported
07/12/2019 04:12 PM 80.96 58.10 38.30 82.04 55.04 21.0 Not Reported 4.70 SW 4.03 SE 7.83 SW No 0.000 No Precipitation 06/25/2019 12:34 PM 06/25/2019 12:42 PM 0.000 0.000 0.000 0.000 0.000 Not Reported Not Reported
07/12/2019 04:17 PM 81.32 58.64 39.92 82.04 55.04 22.0 Not Reported 4.25 W 4.25 SW 7.83 SW No 0.000 No Precipitation 06/25/2019 12:34 PM 06/25/2019 12:42 PM 0.000 0.000 0.000 0.000 0.000 Not Reported Not Reported
07/12/2019 04:22 PM 80.42 58.46 40.28 82.04 55.04 23.0 Not Reported 4.25 W 4.47 SW 8.05 W No 0.000 No Precipitation 06/25/2019 12:34 PM 06/25/2019 12:42 PM 0.000 0.000 0.000 0.000 0.000 Not Reported Not Reported
07/12/2019 04:27 PM 81.14 58.64 39.74 82.04 55.04 22.0 Not Reported 3.58 SW 8.05 SW 8.05 W No 0.000 No Precipitation 06/25/2019 12:34 PM 06/25/2019 12:42 PM 0.000 0.000 0.000 0.000 0.000 Not Reported Not Reported
07/12/2019 04:32 PM 80.78 58.64 40.46 82.04 55.04 23.0 Not Reported 5.14 SW 5.37 SW 9.40 SW No 0.000 No Precipitation 06/25/2019 12:34 PM 06/25/2019 12:42 PM 0.000 0.000 0.000 0.000 0.000 Not Reported Not Reported
07/12/2019 04:37 PM 81.50 59.00 40.46 82.04 55.04 23.0 Not Reported 4.03 W 4.70 S 9.40 SW No 0.000 No Precipitation 06/25/2019 12:34 PM 06/25/2019 12:42 PM 0.000 0.000 0.000 0.000 0.000 Not Reported Not Reported
07/12/2019 04:42 PM 81.68 58.28 37.94 82.04 55.04 20.0 Not Reported 4.47 W 2.91 SW 11.41 W No 0.000 No Precipitation 06/25/2019 12:34 PM 06/25/2019 12:42 PM 0.000 0.000 0.000 0.000 0.000 Not Reported Not Reported
07/12/2019 04:47 PM 81.14 57.74 37.04 82.22 55.04 20.0 Not Reported 4.47 W 6.26 W 11.41 W No 0.000 No Precipitation 06/25/2019 12:34 PM 06/25/2019 12:42 PM 0.000 0.000 0.000 0.000 0.000 Not Reported Not Reported
07/12/2019 04:52 PM 81.68 58.10 37.58 82.22 55.04 20.0 Not Reported 4.47 W 4.92 SW 8.05 SW No 0.000 No Precipitation 06/25/2019 12:34 PM 06/25/2019 12:42 PM 0.000 0.000 0.000 0.000 0.000 Not Reported Not Reported
07/12/2019 04:57 PM 82.22 58.28 37.40 82.22 55.04 20.0 Not Reported 3.80 SW 5.37 SW 8.05 SW No 0.000 No Precipitation 06/25/2019 12:34 PM 06/25/2019 12:42 PM 0.000 0.000 0.000 0.000 0.000 Not Reported Not Reported
07/12/2019 05:02 PM 81.50 57.74 36.86 82.40 55.04 20.0 Not Reported 3.13 SW 3.13 SW 6.49 N No 0.000 No Precipitation 06/25/2019 12:34 PM 06/25/2019 12:42 PM 0.000 0.000 0.000 0.000 0.000 Not Reported Not Reported
07/12/2019 05:07 PM 82.40 58.10 36.68 82.40 55.04 19.0 Not Reported 2.68 SW 3.13 W 6.49 N No 0.000 No Precipitation 06/25/2019 12:34 PM 06/25/2019 12:42 PM 0.000 0.000 0.000 0.000 0.000 Not Reported Not Reported
07/12/2019 05:12 PM 80.60 57.02 35.24 82.94 55.04 19.0 Not Reported 2.46 NW 1.34 W 6.71 SW No 0.000 No Precipitation 06/25/2019 12:34 PM 06/25/2019 12:42 PM 0.000 0.000 0.000 0.000 0.000 Not Reported Not Reported
07/12/2019 05:17 PM 80.42 56.84 35.06 82.94 55.04 19.0 Not Reported 7.61 SW 7.16 SW 6.71 SW No 0.000 No Precipitation 06/25/2019 12:34 PM 06/25/2019 12:42 PM 0.000 0.000 0.000 0.000 0.000 Not Reported Not Reported
07/12/2019 05:22 PM 81.86 57.38 35.06 82.94 55.04 18.0 Not Reported 5.14 SW 8.05 W 8.28 SW No 0.000 No Precipitation 06/25/2019 12:34 PM 06/25/2019 12:42 PM 0.000 0.000 0.000 0.000 0.000 Not Reported Not Reported
07/12/2019 05:27 PM 81.32 57.38 35.60 82.94 55.04 19.0 Not Reported 3.58 SW 2.68 SW 8.28 SW No 0.000 No Precipitation 06/25/2019 12:34 PM 06/25/2019 12:42 PM 0.000 0.000 0.000 0.000 0.000 Not Reported Not Reported
07/12/2019 05:32 PM 81.68 58.46 38.30 82.94 55.04 21.0 Not Reported 3.80 W 2.46 W 8.05 W No 0.000 No Precipitation 06/25/2019 12:34 PM 06/25/2019 12:42 PM 0.000 0.000 0.000 0.000 0.000 Not Reported Not Reported
07/12/2019 05:37 PM 82.40 58.46 37.94 82.94 55.04 20.0 Not Reported 5.14 SW 4.25 W 8.05 W No 0.000 No Precipitation 06/25/2019 12:34 PM 06/25/2019 12:42 PM 0.000 0.000 0.000 0.000 0.000 Not Reported Not Reported
07/12/2019 05:42 PM 81.14 57.74 37.40 82.94 55.04 20.0 Not Reported 3.13 W 3.80 NW 7.61 W No 0.000 No Precipitation 06/25/2019 12:34 PM 06/25/2019 12:42 PM 0.000 0.000 0.000 0.000 0.000 Not Reported Not Reported
07/12/2019 05:47 PM 82.22 57.92 36.14 82.94 55.04 19.0 Not Reported 4.70 SW 2.68 SW 7.61 W No 0.000 No Precipitation 06/25/2019 12:34 PM 06/25/2019 12:42 PM 0.000 0.000 0.000 0.000 0.000 Not Reported Not Reported
07/12/2019 05:52 PM 81.32 57.38 35.42 82.94 55.04 19.0 Not Reported 4.03 SW 2.91 SW 10.29 NW No 0.000 No Precipitation 06/25/2019 12:34 PM 06/25/2019 12:42 PM 0.000 0.000 0.000 0.000 0.000 Not Reported Not Reported
07/12/2019 05:57 PM 81.50 58.28 38.30 82.94 55.04 21.0 Not Reported 2.46 W 3.58 W 10.29 NW No 0.000 No Precipitation 06/25/2019 12:34 PM 06/25/2019 12:42 PM 0.000 0.000 0.000 0.000 0.000 Not Reported Not Reported
07/12/2019 06:02 PM 80.60 57.02 35.42 82.94 55.04 19.0 Not Reported 5.59 W 4.47 W 6.93 W No 0.000 No Precipitation 06/25/2019 12:34 PM 06/25/2019 12:42 PM 0.000 0.000 0.000 0.000 0.000 Not Reported Not Reported
07/12/2019 06:07 PM 81.14 57.92 37.94 82.94 55.04 20.0 Not Reported 5.14 W 3.58 SW 6.93 W No 0.000 No Precipitation 06/25/2019 12:34 PM 06/25/2019 12:42 PM 0.000 0.000 0.000 0.000 0.000 Not Reported Not Reported
07/12/2019 06:12 PM 80.60 57.38 36.32 82.94 55.04 20.0 Not Reported 3.58 SW 2.91 SW 9.84 W No 0.000 No Precipitation 06/25/2019 12:34 PM 06/25/2019 12:42 PM 0.000 0.000 0.000 0.000 0.000 Not Reported Not Reported
07/12/2019 06:17 PM 81.32 58.28 38.48 82.94 55.04 21.0 Not Reported 4.70 SW 4.92 W 9.84 W No 0.000 No Precipitation 06/25/2019 12:34 PM 06/25/2019 12:42 PM 0.000 0.000 0.000 0.000 0.000 Not Reported Not Reported
07/12/2019 06:22 PM 80.60 58.10 38.12 82.94 55.04 22.0 Not Reported 2.68 W 3.80 W 6.04 SW No 0.000 No Precipitation 06/25/2019 12:34 PM 06/25/2019 12:42 PM 0.000 0.000 0.000 0.000 0.000 Not Reported Not Reported
07/12/2019 06:27 PM 80.42 57.38 37.04 82.94 55.04 21.0 Not Reported 2.68 SW 8.72 SW 6.04 SW No 0.000 No Precipitation 06/25/2019 12:34 PM 06/25/2019 12:42 PM 0.000 0.000 0.000 0.000 0.000 Not Reported Not Reported
07/12/2019 06:32 PM 80.42 57.38 37.22 82.94 55.04 21.0 Not Reported 5.82 W 4.92 W 8.72 SW No 0.000 No Precipitation 06/25/2019 12:34 PM 06/25/2019 12:42 PM 0.000 0.000 0.000 0.000 0.000 Not Reported Not Reported
07/12/2019 06:37 PM 80.60 58.28 39.56 82.94 55.04 23.0 Not Reported 4.25 SW 5.14 W 8.72 SW No 0.000 No Precipitation 06/25/2019 12:34 PM 06/25/2019 12:42 PM 0.000 0.000 0.000 0.000 0.000 Not Reported Not Reported
07/12/2019 06:42 PM 80.24 58.46 40.46 82.94 55.04 24.0 Not Reported 4.03 W 4.47 W 8.05 W No 0.000 No Precipitation 06/25/2019 12:34 PM 06/25/2019 12:42 PM 0.000 0.000 0.000 0.000 0.000 Not Reported Not Reported
07/12/2019 06:47 PM 80.42 59.18 42.26 82.94 55.04 25.0 Not Reported 3.36 W 5.82 SW 8.05 W No 0.000 No Precipitation 06/25/2019 12:34 PM 06/25/2019 12:42 PM 0.000 0.000 0.000 0.000 0.000 Not Reported Not Reported
07/12/2019 06:52 PM 80.24 59.54 43.34 82.94 55.04 27.0 Not Reported 5.82 SW 3.80 W 6.49 SW No 0.000 No Precipitation 06/25/2019 12:34 PM 06/25/2019 12:42 PM 0.000 0.000 0.000 0.000 0.000 Not Reported Not Reported
07/12/2019 06:57 PM 80.42 59.18 42.08 82.94 55.04 25.0 Not Reported 4.70 SW 5.14 W 6.49 SW No 0.000 No Precipitation 06/25/2019 12:34 PM 06/25/2019 12:42 PM 0.000 0.000 0.000 0.000 0.000 Not Reported Not Reported
07/12/2019 07:02 PM 80.06 58.64 41.18 82.94 55.04 25.0 Not Reported 4.47 SW 4.70 SW 8.05 W No 0.000 No Precipitation 06/25/2019 12:34 PM 06/25/2019 12:42 PM 0.000 0.000 0.000 0.000 0.000 Not Reported Not Reported
07/12/2019 07:07 PM 79.52 58.82 42.44 82.94 55.04 26.0 Not Reported 4.03 W 6.26 SW 8.05 W No 0.000 No Precipitation 06/25/2019 12:34 PM 06/25/2019 12:42 PM 0.000 0.000 0.000 0.000 0.000 Not Reported Not Reported
07/12/2019 07:12 PM 79.52 58.82 42.44 82.94 55.04 26.0 Not Reported 4.47 W 4.03 W 7.38 SW No 0.000 No Precipitation 06/25/2019 12:34 PM 06/25/2019 12:42 PM 0.000 0.000 0.000 0.000 0.000 Not Reported Not Reported
07/12/2019 07:17 PM 79.16 59.00 42.98 82.94 55.04 27.0 Not Reported 4.92 SW 3.80 W 7.38 SW No 0.000 No Precipitation 06/25/2019 12:34 PM 06/25/2019 12:42 PM 0.000 0.000 0.000 0.000 0.000 Not Reported Not Reported
07/12/2019 07:22 PM 78.98 58.82 42.80 82.94 55.04 27.0 Not Reported 3.36 SW 3.58 W 7.83 W No 0.000 No Precipitation 06/25/2019 12:34 PM 06/25/2019 12:42 PM 0.000 0.000 0.000 0.000 0.000 Not Reported Not Reported
07/12/2019 07:27 PM 78.98 58.64 42.44 82.94 55.04 27.0 Not Reported 3.80 W 3.13 SW 7.83 W No 0.000 No Precipitation 06/25/2019 12:34 PM 06/25/2019 12:42 PM 0.000 0.000 0.000 0.000 0.000 Not Reported Not Reported
07/12/2019 07:32 PM 78.98 58.64 42.44 82.94 55.04 27.0 Not Reported 3.36 SW 3.58 SW 6.93 W No 0.000 No Precipitation 06/25/2019 12:34 PM 06/25/2019 12:42 PM 0.000 0.000 0.000 0.000 0.000 Not Reported Not Reported
07/12/2019 07:37 PM 78.98 59.00 43.34 82.94 55.04 28.0 Not Reported 3.36 W 4.47 SW 6.93 W No 0.000 No Precipitation 06/25/2019 12:34 PM 06/25/2019 12:42 PM 0.000 0.000 0.000 0.000 0.000 Not Reported Not Reported
07/12/2019 07:42 PM 78.80 58.82 42.98 82.94 55.04 28.0 Not Reported 3.36 SW 3.58 W 6.71 W No 0.000 No Precipitation 06/25/2019 12:34 PM 06/25/2019 12:42 PM 0.000 0.000 0.000 0.000 0.000 Not Reported Not Reported
07/12/2019 07:47 PM 78.44 59.00 44.06 82.94 55.04 29.0 Not Reported 3.13 SW 3.36 SW 6.71 W No 0.000 No Precipitation 06/25/2019 12:34 PM 06/25/2019 12:42 PM 0.000 0.000 0.000 0.000 0.000 Not Reported Not Reported
07/12/2019 07:52 PM 78.26 59.00 43.70 82.94 55.04 29.0 Not Reported 2.91 W 3.13 NW 5.82 W No 0.000 No Precipitation 06/25/2019 12:34 PM 06/25/2019 12:42 PM 0.000 0.000 0.000 0.000 0.000 Not Reported Not Reported
07/12/2019 07:57 PM 77.90 58.64 43.52 82.94 55.04 29.0 Not Reported 4.03 W 3.80 SW 5.82 W No 0.000 No Precipitation 06/25/2019 12:34 PM 06/25/2019 12:42 PM 0.000 0.000 0.000 0.000 0.000 Not Reported Not Reported
07/12/2019 08:02 PM 77.36 58.64 43.88 82.94 55.04 30.0 Not Reported 3.80 SW 4.25 SW 4.70 W No 0.000 No Precipitation 06/25/2019 12:34 PM 06/25/2019 12:42 PM 0.000 0.000 0.000 0.000 0.000 Not Reported Not Reported
07/12/2019 08:07 PM 76.82 58.28 43.52 82.94 55.04 30.0 Not Reported 3.36 W 2.01 SW 4.70 W No 0.000 No Precipitation 06/25/2019 12:34 PM 06/25/2019 12:42 PM 0.000 0.000 0.000 0.000 0.000 Not Reported Not Reported
07/12/2019 08:12 PM 76.46 58.28 44.06 82.94 55.04 31.0 Not Reported 3.13 SW 4.25 SW 4.70 SW No 0.000 No Precipitation 06/25/2019 12:34 PM 06/25/2019 12:42 PM 0.000 0.000 0.000 0.000 0.000 Not Reported Not Reported
07/12/2019 08:17 PM 75.92 57.92 43.34 82.94 55.04 31.0 Not Reported 3.80 SW 5.82 SW 4.70 SW No 0.000 No Precipitation 06/25/2019 12:34 PM 06/25/2019 12:42 PM 0.000 0.000 0.000 0.000 0.000 Not Reported Not Reported
07/12/2019 08:22 PM 75.56 57.92 43.88 82.94 55.04 32.0 Not Reported 3.36 W 2.24 SW 5.82 SW No 0.000 No Precipitation 06/25/2019 12:34 PM 06/25/2019 12:42 PM 0.000 0.000 0.000 0.000 0.000 Not Reported Not Reported
07/12/2019 08:27 PM 75.38 57.74 44.06 82.94 55.04 32.0 Not Reported 3.13 SW 2.46 SW 5.82 SW No 0.000 No Precipitation 06/25/2019 12:34 PM 06/25/2019 12:42 PM 0.000 0.000 0.000 0.000 0.000 Not Reported Not Reported
07/12/2019 08:32 PM 74.84 57.56 43.88 82.94 55.04 33.0 Not Reported 2.68 SW 2.46 W 4.70 SW No 0.000 No Precipitation 06/25/2019 12:34 PM 06/25/2019 12:42 PM 0.000 0.000 0.000 0.000 0.000 Not Reported Not Reported
07/12/2019 08:37 PM 74.48 57.56 44.06 82.94 55.04 33.0 Not Reported 3.13 W 3.36 SW 4.70 SW No 0.000 No Precipitation 06/25/2019 12:34 PM 06/25/2019 12:42 PM 0.000 0.000 0.000 0.000 0.000 Not Reported Not Reported
07/12/2019 08:42 PM 74.12 57.20 43.70 82.94 55.04 33.0 Not Reported 3.58 SW 3.13 SW 4.03 SW No 0.000 No Precipitation 06/25/2019 12:34 PM 06/25/2019 12:42 PM 0.000 0.000 0.000 0.000 0.000 Not Reported Not Reported
07/12/2019 08:47 PM 73.76 56.84 42.80 82.94 55.04 32.0 Not Reported 4.25 SW 4.47 W 4.03 SW No 0.000 No Precipitation 06/25/2019 12:34 PM 06/25/2019 12:42 PM 0.000 0.000 0.000 0.000 0.000 Not Reported Not Reported
07/12/2019 08:52 PM 73.40 56.84 43.34 82.94 55.04 34.0 Not Reported 2.91 SW 2.91 SW 5.82 W No 0.000 No Precipitation 06/25/2019 12:34 PM 06/25/2019 12:42 PM 0.000 0.000 0.000 0.000 0.000 Not Reported Not Reported
07/12/2019 08:57 PM 72.86 56.66 43.16 82.94 55.04 34.0 Not Reported 3.80 W 3.36 SW 5.82 W No 0.000 No Precipitation 06/25/2019 12:34 PM 06/25/2019 12:42 PM 0.000 0.000 0.000 0.000 0.000 Not Reported Not Reported
07/12/2019 09:02 PM 72.32 56.48 43.52 82.94 55.04 35.0 Not Reported 3.36 SW 2.46 W 4.70 W No 0.000 No Precipitation 06/25/2019 12:34 PM 06/25/2019 12:42 PM 0.000 0.000 0.000 0.000 0.000 Not Reported Not Reported
07/12/2019 09:07 PM 71.60 56.12 43.52 82.94 55.04 36.0 Not Reported 3.36 W 3.13 W 4.70 W No 0.000 No Precipitation 06/25/2019 12:34 PM 06/25/2019 12:42 PM 0.000 0.000 0.000 0.000 0.000 Not Reported Not Reported
07/12/2019 09:12 PM 71.24 56.12 43.52 82.94 55.04 36.0 Not Reported 3.36 W 3.58 W 4.03 W No 0.000 No Precipitation 06/25/2019 12:34 PM 06/25/2019 12:42 PM 0.000 0.000 0.000 0.000 0.000 Not Reported Not Reported
07/12/2019 09:17 PM 70.70 55.94 43.70 82.94 55.04 37.0 Not Reported 3.80 SW 4.03 W 4.03 W No 0.000 No Precipitation 06/25/2019 12:34 PM 06/25/2019 12:42 PM 0.000 0.000 0.000 0.000 0.000 Not Reported Not Reported
07/12/2019 09:22 PM 70.16 55.76 43.70 82.94 55.04 38.0 Not Reported 4.25 SW 4.70 W 4.25 W No 0.000 No Precipitation 06/25/2019 12:34 PM 06/25/2019 12:42 PM 0.000 0.000 0.000 0.000 0.000 Not Reported Not Reported
07/12/2019 09:27 PM 69.80 55.58 43.88 82.94 55.04 39.0 Not Reported 3.58 SW 3.80 SW 4.25 W No 0.000 No Precipitation 06/25/2019 12:34 PM 06/25/2019 12:42 PM 0.000 0.000 0.000 0.000 0.000 Not Reported Not Reported
07/12/2019 09:32 PM 68.90 55.40 44.24 82.94 55.04 41.0 Not Reported 3.58 SW 3.13 W 4.70 W No 0.000 No Precipitation 06/25/2019 12:34 PM 06/25/2019 12:42 PM 0.000 0.000 0.000 0.000 0.000 Not Reported Not Reported
07/12/2019 09:37 PM 68.54 55.40 44.42 82.94 55.04 41.0 Not Reported 3.58 W 4.25 SW 4.70 W No 0.000 No Precipitation 06/25/2019 12:34 PM 06/25/2019 12:42 PM 0.000 0.000 0.000 0.000 0.000 Not Reported Not Reported
07/12/2019 09:42 PM 68.36 55.40 44.78 82.94 55.04 42.0 Not Reported 3.80 W 2.91 W 4.25 SW No 0.000 No Precipitation 06/25/2019 12:34 PM 06/25/2019 12:42 PM 0.000 0.000 0.000 0.000 0.000 Not Reported Not Reported
07/12/2019 09:47 PM 67.82 55.22 44.96 82.94 55.04 43.0 Not Reported 3.80 W 3.80 SW 4.25 SW No 0.000 No Precipitation 06/25/2019 12:34 PM 06/25/2019 12:42 PM 0.000 0.000 0.000 0.000 0.000 Not Reported Not Reported
07/12/2019 09:52 PM 67.82 55.40 45.32 82.94 55.04 44.0 Not Reported 2.68 W 2.46 W 4.47 W No 0.000 No Precipitation 06/25/2019 12:34 PM 06/25/2019 12:42 PM 0.000 0.000 0.000 0.000 0.000 Not Reported Not Reported
07/12/2019 09:57 PM 67.46 55.40 45.50 82.94 55.04 45.0 Not Reported 3.13 W 2.91 W 4.47 W No 0.000 No Precipitation 06/25/2019 12:34 PM 06/25/2019 12:42 PM 0.000 0.000 0.000 0.000 0.000 Not Reported Not Reported
07/12/2019 10:02 PM 67.46 55.40 45.68 82.94 55.04 45.0 Not Reported 2.68 W 2.01 W 3.80 SW No 0.000 No Precipitation 06/25/2019 12:34 PM 06/25/2019 12:42 PM 0.000 0.000 0.000 0.000 0.000 Not Reported Not Reported
07/12/2019 10:07 PM 67.46 55.58 45.86 82.94 55.04 45.0 Not Reported 2.68 W 1.79 W 3.80 SW No 0.000 No Precipitation 06/25/2019 12:34 PM 06/25/2019 12:42 PM 0.000 0.000 0.000 0.000 0.000 Not Reported Not Reported
07/12/2019 10:12 PM 66.92 55.40 46.22 82.94 55.04 47.0 Not Reported 2.01 W 1.57 W 3.80 W No 0.000 No Precipitation 06/25/2019 12:34 PM 06/25/2019 12:42 PM 0.000 0.000 0.000 0.000 0.000 Not Reported Not Reported
07/12/2019 10:17 PM 66.74 55.40 46.22 82.94 55.04 47.0 Not Reported 1.57 W 1.57 W 3.80 W No 0.000 No Precipitation 06/25/2019 12:34 PM 06/25/2019 12:42 PM 0.000 0.000 0.000 0.000 0.000 Not Reported Not Reported
07/12/2019 10:22 PM 65.84 54.86 46.22 82.94 55.04 49.0 Not Reported 1.34 W 1.57 W 2.46 NW No 0.000 No Precipitation 06/25/2019 12:34 PM 06/25/2019 12:42 PM 0.000 0.000 0.000 0.000 0.000 Not Reported Not Reported
07/12/2019 10:27 PM 65.48 54.68 45.86 82.94 55.04 48.0 Not Reported 0.89 W 0.22 SW 2.46 NW No 0.000 No Precipitation 06/25/2019 12:34 PM 06/25/2019 12:42 PM 0.000 0.000 0.000 0.000 0.000 Not Reported Not Reported
07/12/2019 10:32 PM 64.94 54.32 45.50 82.94 55.04 49.0 Not Reported 0.67 W 1.57 NW 1.57 W No 0.000 No Precipitation 06/25/2019 12:34 PM 06/25/2019 12:42 PM 0.000 0.000 0.000 0.000 0.000 Not Reported Not Reported
07/12/2019 10:37 PM 63.68 53.78 45.50 82.94 55.04 51.0 Not Reported 0.00 N 0.45 N 1.57 W No 0.000 No Precipitation 06/25/2019 12:34 PM 06/25/2019 12:42 PM 0.000 0.000 0.000 0.000 0.000 Not Reported Not Reported
07/12/2019 10:42 PM 63.14 53.78 46.04 82.94 55.04 53.0 Not Reported 0.45 N 0.00 NW 1.57 NW No 0.000 No Precipitation 06/25/2019 12:34 PM 06/25/2019 12:42 PM 0.000 0.000 0.000 0.000 0.000 Not Reported Not Reported
07/12/2019 10:47 PM 63.14 53.78 46.22 82.94 55.04 54.0 Not Reported 0.22 W 0.00 W 1.57 NW No 0.000 No Precipitation 06/25/2019 12:34 PM 06/25/2019 12:42 PM 0.000 0.000 0.000 0.000 0.000 Not Reported Not Reported
07/12/2019 10:52 PM 63.14 53.96 46.40 82.94 55.04 54.0 Not Reported 0.67 W 0.89 SW 0.89 N No 0.000 No Precipitation 06/25/2019 12:34 PM 06/25/2019 12:42 PM 0.000 0.000 0.000 0.000 0.000 Not Reported Not Reported
07/12/2019 10:57 PM 63.32 54.14 46.94 82.94 55.04 54.0 Not Reported 0.45 SW 0.00 SW 0.89 N No 0.000 No Precipitation 06/25/2019 12:34 PM 06/25/2019 12:42 PM 0.000 0.000 0.000 0.000 0.000 Not Reported Not Reported
07/12/2019 11:02 PM 62.96 53.96 46.58 82.94 55.04 55.0 Not Reported 0.00 N 0.00 NW 1.34 W No 0.000 No Precipitation 06/25/2019 12:34 PM 06/25/2019 12:42 PM 0.000 0.000 0.000 0.000 0.000 Not Reported Not Reported
07/12/2019 11:07 PM 62.42 53.60 46.40 82.94 55.04 55.0 Not Reported 0.00 N 0.22 NE 1.34 W No 0.000 No Precipitation 06/25/2019 12:34 PM 06/25/2019 12:42 PM 0.000 0.000 0.000 0.000 0.000 Not Reported Not Reported
07/12/2019 11:12 PM 62.06 53.60 46.76 82.94 55.04 57.0 Not Reported 0.00 NE 0.00 E 0.22 NE No 0.000 No Precipitation 06/25/2019 12:34 PM 06/25/2019 12:42 PM 0.000 0.000 0.000 0.000 0.000 Not Reported Not Reported
07/12/2019 11:17 PM 61.88 53.42 46.40 82.94 55.04 56.0 Not Reported 0.22 NE 0.22 N 0.22 NE No 0.000 No Precipitation 06/25/2019 12:34 PM 06/25/2019 12:42 PM 0.000 0.000 0.000 0.000 0.000 Not Reported Not Reported
07/12/2019 11:22 PM 61.70 53.42 46.76 82.94 55.04 57.0 Not Reported 0.22 N 0.00 N 0.89 N No 0.000 No Precipitation 06/25/2019 12:34 PM 06/25/2019 12:42 PM 0.000 0.000 0.000 0.000 0.000 Not Reported Not Reported
07/12/2019 11:27 PM 61.88 53.60 46.76 82.94 55.04 57.0 Not Reported 0.22 N 0.00 N 0.89 N No 0.000 No Precipitation 06/25/2019 12:34 PM 06/25/2019 12:42 PM 0.000 0.000 0.000 0.000 0.000 Not Reported Not Reported
07/12/2019 11:32 PM 61.70 53.60 47.12 82.94 55.04 58.0 Not Reported 0.67 N 0.22 N 0.89 N No 0.000 No Precipitation 06/25/2019 12:34 PM 06/25/2019 12:42 PM 0.000 0.000 0.000 0.000 0.000 Not Reported Not Reported
07/12/2019 11:37 PM 61.70 53.78 47.66 82.94 55.04 59.0 Not Reported 0.22 N 0.67 NW 0.89 N No 0.000 No Precipitation 06/25/2019 12:34 PM 06/25/2019 12:42 PM 0.000 0.000 0.000 0.000 0.000 Not Reported Not Reported
07/12/2019 11:42 PM 61.52 53.78 47.48 82.94 55.04 60.0 Not Reported 0.22 NW 0.00 NW 1.12 N No 0.000 No Precipitation 06/25/2019 12:34 PM 06/25/2019 12:42 PM 0.000 0.000 0.000 0.000 0.000 Not Reported Not Reported
07/12/2019 11:47 PM 61.52 53.78 47.66 82.94 55.04 60.0 Not Reported 0.22 N 0.67 N 1.12 N No 0.000 No Precipitation 06/25/2019 12:34 PM 06/25/2019 12:42 PM 0.000 0.000 0.000 0.000 0.000 Not Reported Not Reported
07/12/2019 11:52 PM 61.70 53.78 47.48 82.94 55.04 59.0 Not Reported 0.22 N 0.00 N 0.67 NW No 0.000 No Precipitation 06/25/2019 12:34 PM 06/25/2019 12:42 PM 0.000 0.000 0.000 0.000 0.000 Not Reported Not Reported
07/12/2019 11:57 PM 61.70 53.78 47.66 82.94 55.04 59.0 Not Reported 0.00 N 0.00 N 0.67 NW No 0.000 No Precipitation 06/25/2019 12:34 PM 06/25/2019 12:42 PM 0.000 0.000 0.000 0.000 0.000 Not Reported Not Reported